TimeEST,TemperatureF,Dew PointF,Humidity,Sea Level PressureIn,VisibilityMPH,Wind Direction,Wind SpeedMPH,Gust SpeedMPH,PrecipitationIn,Events,Conditions,WindDirDegrees,DateUTC
12:53 AM,46.0,36.0,68,30.25,10.0,West,5.8,-,N/A,,Clear,270,2013-11-10 05:53:00
1:53 AM,48.0,35.1,61,30.24,10.0,West,4.6,-,N/A,,Clear,270,2013-11-10 06:53:00
2:53 AM,48.0,36.0,63,30.24,10.0,West,6.9,-,N/A,,Clear,270,2013-11-10 07:53:00
3:53 AM,48.0,34.0,58,30.24,10.0,West,4.6,-,N/A,,Clear,270,2013-11-10 08:53:00
4:53 AM,46.9,34.0,61,30.24,10.0,WNW,3.5,-,N/A,,Clear,290,2013-11-10 09:53:00
5:53 AM,48.0,34.0,58,30.24,10.0,West,8.1,-,N/A,,Clear,260,2013-11-10 10:53:00
6:53 AM,48.9,34.0,56,30.24,10.0,West,5.8,-,N/A,,Partly Cloudy,280,2013-11-10 11:53:00
7:53 AM,51.1,33.1,50,30.26,10.0,WNW,5.8,-,N/A,,Clear,300,2013-11-10 12:53:00
8:53 AM,53.1,33.1,47,30.26,10.0,NW,5.8,-,N/A,,Scattered Clouds,320,2013-11-10 13:53:00
9:53 AM,60.1,34.0,38,30.26,10.0,NNW,5.8,-,N/A,,Clear,330,2013-11-10 14:53:00
10:53 AM,63.0,34.0,34,30.25,10.0,North,5.8,-,N/A,,Clear,350,2013-11-10 15:53:00
11:53 AM,64.9,36.0,34,30.24,10.0,Variable,4.6,-,N/A,,Clear,0,2013-11-10 16:53:00
12:53 PM,69.1,37.0,31,30.21,10.0,WNW,6.9,-,N/A,,Clear,290,2013-11-10 17:53:00
1:53 PM,71.1,30.9,23,30.18,10.0,West,11.5,16.1,N/A,,Clear,280,2013-11-10 18:53:00
2:53 PM,73.0,28.9,20,30.17,10.0,NNW,11.5,16.1,N/A,,Clear,340,2013-11-10 19:53:00
3:53 PM,72.0,27.0,19,30.17,10.0,North,6.9,-,N/A,,Clear,350,2013-11-10 20:53:00
4:53 PM,69.1,28.0,22,30.19,10.0,NW,10.4,-,N/A,,Clear,320,2013-11-10 21:53:00
5:53 PM,64.0,28.9,27,30.20,10.0,NW,8.1,-,N/A,,Clear,310,2013-11-10 22:53:00
6:53 PM,62.1,27.0,26,30.22,10.0,NNW,8.1,-,N/A,,Clear,330,2013-11-10 23:53:00
7:53 PM,60.1,30.0,32,30.23,10.0,NW,5.8,-,N/A,,Clear,320,2013-11-11 00:53:00
8:53 PM,57.0,30.9,37,30.22,10.0,WNW,3.5,-,N/A,,Clear,290,2013-11-11 01:53:00
9:53 PM,54.0,34.0,47,30.22,10.0,West,3.5,-,N/A,,Clear,260,2013-11-11 02:53:00
10:53 PM,50.0,35.1,57,30.22,10.0,NNW,3.5,-,N/A,,Clear,340,2013-11-11 03:53:00
11:53 PM,51.1,34.0,52,30.22,10.0,WNW,6.9,-,N/A,,Clear,300,2013-11-11 04:53:00